When you browse on this site, cookies collect data to enhance your experience and personalize the content and advertising you see.
Visit our Privacy Policy to learn more. By continuing to use the site, you agree to this use of cookies and data.
  • In France
  • List of Countries
  • For 7 days
  • Water Temperature
  • Weather Map
  • Weather Widgets
  • user-avatar
    Login

    Hourly Weather Abovyan

    Today, 23 August, Friday

    Time Temperature Precipitation Wind Pressure Humidity
    00:00 +22°C° 0 mm 3 mps 671 mmHg 38%
    01:00 +21°C° 0 mm 3 mps 671 mmHg 39%
    02:00 +20°C° 0 mm 2 mps 671 mmHg 40%
    03:00 +20°C° 0 mm 2 mps 671 mmHg 41%
    04:00 +20°C° 0 mm 2 mps 671 mmHg 41%
    05:00 +20°C° 0 mm 2 mps 671 mmHg 40%
    06:00 +21°C° 0 mm 1 mps 671 mmHg 40%
    07:00 +24°C° 0 mm 2 mps 671 mmHg 34%
    08:00 +27°C° 0 mm 2 mps 672 mmHg 29%
    09:00 +30°C° 0 mm 2 mps 673 mmHg 23%
    10:00 +31°C° 0 mm 2 mps 673 mmHg 20%
    11:00 +34°C° 0 mm 3 mps 673 mmHg 18%
    12:00 +35°C° 0 mm 3 mps 672 mmHg 15%
    13:00 +36°C° 0 mm 4 mps 672 mmHg 14%
    14:00 +37°C° 0 mm 4 mps 672 mmHg 13%
    15:00 +38°C° 0 mm 4 mps 672 mmHg 12%
    16:00 +36°C° 0 mm 5 mps 672 mmHg 17%
    17:00 +34°C° 0 mm 5 mps 671 mmHg 23%
    18:00 +33°C° 0 mm 6 mps 671 mmHg 28%
    19:00 +29°C° 0 mm 5 mps 671 mmHg 33%
    20:00 +27°C° 0 mm 4 mps 671 mmHg 37%
    21:00 +24°C° 0 mm 3 mps 671 mmHg 42%
    22:00 +24°C° 0 mm 3 mps 671 mmHg 43%
    23:00 +23°C° 0 mm 2 mps 671 mmHg 44%

    Tomorrow, 24 August, Saturday

    Time Temperature Precipitation Wind Pressure Humidity
    00:00 +23°C° 0 mm 2 mps 671 mmHg 45%
    01:00 +21°C° 0 mm 2 mps 671 mmHg 46%
    02:00 +22°C° 0 mm 1 mps 671 mmHg 47%
    03:00 +21°C° 0 mm 1 mps 671 mmHg 49%
    04:00 +21°C° 0 mm 1 mps 671 mmHg 48%
    05:00 +21°C° 0 mm 1 mps 671 mmHg 48%
    06:00 +21°C° 0 mm 1 mps 672 mmHg 48%
    07:00 +24°C° 0 mm 1 mps 672 mmHg 42%
    08:00 +27°C° 0 mm 1 mps 673 mmHg 35%
    09:00 +30°C° 0 mm 1 mps 674 mmHg 29%
    10:00 +31°C° 0 mm 2 mps 674 mmHg 26%
    11:00 +34°C° 0 mm 2 mps 674 mmHg 23%
    12:00 +35°C° 0 mm 2 mps 674 mmHg 21%
    13:00 +36°C° 0 mm 2 mps 674 mmHg 19%
    14:00 +36°C° 0 mm 2 mps 674 mmHg 18%
    15:00 +37°C° 0 mm 2 mps 674 mmHg 17%
    16:00 +35°C° 0.2 mm 3 mps 673 mmHg 23%
    17:00 +33°C° 0.2 mm 5 mps 673 mmHg 30%
    18:00 +30°C° 0.2 mm 6 mps 673 mmHg 36%
    19:00 +28°C° 0.1 mm 5 mps 673 mmHg 41%
    20:00 +26°C° 0.1 mm 5 mps 674 mmHg 46%
    21:00 +25°C° 0.1 mm 4 mps 674 mmHg 51%
    22:00 +24°C° 0 mm 3 mps 674 mmHg 53%
    23:00 +23°C° 0 mm 2 mps 673 mmHg 56%

    Day after tomorrow, 25 August, Sunday

    Time Temperature Precipitation Wind Pressure Humidity
    00:00 +22°C° 0 mm 1 mps 673 mmHg 59%
    01:00 +21°C° 0 mm 1 mps 673 mmHg 60%
    02:00 +21°C° 0 mm 1 mps 672 mmHg 61%
    03:00 +20°C° 0 mm 1 mps 672 mmHg 62%
    04:00 +21°C° 0 mm 1 mps 672 mmHg 61%
    05:00 +21°C° 0 mm 1 mps 672 mmHg 60%
    06:00 +21°C° 0 mm 1 mps 672 mmHg 59%
    07:00 +23°C° 0 mm 1 mps 673 mmHg 52%
    08:00 +26°C° 0 mm 1 mps 673 mmHg 45%
    09:00 +28°C° 0 mm 1 mps 674 mmHg 37%
    10:00 +30°C° 0 mm 2 mps 674 mmHg 33%
    11:00 +32°C° 0 mm 2 mps 674 mmHg 29%
    12:00 +34°C° 0 mm 2 mps 674 mmHg 25%
    13:00 +35°C° 0 mm 2 mps 673 mmHg 24%
    14:00 +36°C° 0 mm 2 mps 673 mmHg 22%
    15:00 +36°C° 0 mm 2 mps 673 mmHg 21%
    16:00 +35°C° 0 mm 3 mps 673 mmHg 23%
    17:00 +34°C° 0 mm 3 mps 672 mmHg 26%
    18:00 +33°C° 0 mm 3 mps 672 mmHg 29%
    19:00 +30°C° 0 mm 3 mps 672 mmHg 35%
    20:00 +28°C° 0 mm 4 mps 672 mmHg 40%
    21:00 +26°C° 0 mm 4 mps 673 mmHg 46%
    22:00 +26°C° 0 mm 3 mps 673 mmHg 46%
    23:00 +25°C° 0 mm 3 mps 673 mmHg 47%

    26 August, Monday

    Time Temperature Precipitation Wind Pressure Humidity
    00:00 +25°C° 0 mm 2 mps 673 mmHg 47%
    01:00 +24°C° 0.1 mm 2 mps 672 mmHg 49%
    02:00 +23°C° 0.1 mm 2 mps 672 mmHg 51%
    03:00 +23°C° 0.1 mm 2 mps 672 mmHg 53%
    04:00 +23°C° 0 mm 2 mps 672 mmHg 53%
    05:00 +22°C° 0 mm 1 mps 672 mmHg 54%
    06:00 +22°C° 0 mm 1 mps 672 mmHg 55%
    07:00 +25°C° 0 mm 1 mps 673 mmHg 48%
    08:00 +27°C° 0 mm 1 mps 673 mmHg 41%
    09:00 +30°C° 0 mm 1 mps 673 mmHg 34%
    10:00 +31°C° 0 mm 2 mps 673 mmHg 31%
    11:00 +34°C° 0 mm 2 mps 674 mmHg 27%
    12:00 +36°C° 0 mm 2 mps 674 mmHg 23%
    13:00 +37°C° 0 mm 2 mps 673 mmHg 21%
    14:00 +37°C° 0 mm 2 mps 673 mmHg 19%
    15:00 +38°C° 0 mm 2 mps 673 mmHg 17%
    16:00 +35°C° 0.4 mm 3 mps 672 mmHg 29%
    17:00 +30°C° 0.4 mm 4 mps 672 mmHg 40%
    18:00 +26°C° 0.4 mm 5 mps 672 mmHg 52%
    19:00 +26°C° 0.2 mm 5 mps 672 mmHg 54%
    20:00 +25°C° 0.2 mm 4 mps 673 mmHg 56%
    21:00 +23°C° 0.2 mm 4 mps 673 mmHg 57%
    22:00 +22°C° 0.2 mm 3 mps 673 mmHg 59%
    23:00 +23°C° 0.2 mm 2 mps 673 mmHg 61%

    27 August, Tuesday

    Time Temperature Precipitation Wind Pressure Humidity
    00:00 +21°C° 0.2 mm 2 mps 672 mmHg 62%
    01:00 +21°C° 0.1 mm 1 mps 672 mmHg 63%
    02:00 +21°C° 0.1 mm 1 mps 672 mmHg 63%
    03:00 +21°C° 0.1 mm 1 mps 672 mmHg 64%
    04:00 +21°C° 0 mm 1 mps 672 mmHg 63%
    05:00 +21°C° 0 mm 1 mps 672 mmHg 62%
    06:00 +21°C° 0 mm 1 mps 672 mmHg 62%
    07:00 +24°C° 0 mm 1 mps 672 mmHg 54%
    08:00 +26°C° 0 mm 2 mps 672 mmHg 47%
    09:00 +28°C° 0 mm 2 mps 673 mmHg 40%
    10:00 +30°C° 0 mm 2 mps 673 mmHg 34%
    11:00 +31°C° 0 mm 2 mps 673 mmHg 29%
    12:00 +34°C° 0 mm 3 mps 672 mmHg 23%
    13:00 +35°C° 0 mm 3 mps 672 mmHg 21%
    14:00 +36°C° 0 mm 3 mps 672 mmHg 20%
    15:00 +37°C° 0 mm 3 mps 671 mmHg 18%
    16:00 +36°C° 0 mm 3 mps 671 mmHg 21%
    17:00 +35°C° 0 mm 3 mps 671 mmHg 24%
    18:00 +34°C° 0 mm 3 mps 671 mmHg 27%
    19:00 +30°C° 0 mm 4 mps 671 mmHg 33%
    20:00 +28°C° 0 mm 4 mps 671 mmHg 40%
    21:00 +26°C° 0 mm 5 mps 670 mmHg 46%
    22:00 +25°C° 0 mm 4 mps 670 mmHg 49%
    23:00 +23°C° 0 mm 4 mps 671 mmHg 52%

    28 August, Wednesday

    Time Temperature Precipitation Wind Pressure Humidity
    00:00 +22°C° 0 mm 3 mps 671 mmHg 55%
    01:00 +21°C° 0 mm 3 mps 670 mmHg 57%
    02:00 +20°C° 0 mm 2 mps 670 mmHg 60%
    03:00 +20°C° 0 mm 2 mps 670 mmHg 62%
    04:00 +20°C° 0 mm 2 mps 670 mmHg 62%
    05:00 +20°C° 0 mm 2 mps 670 mmHg 62%
    06:00 +20°C° 0 mm 2 mps 671 mmHg 62%
    07:00 +23°C° 0 mm 1 mps 671 mmHg 55%
    08:00 +25°C° 0 mm 1 mps 671 mmHg 48%
    09:00 +28°C° 0 mm 1 mps 672 mmHg 41%
    10:00 +29°C° 0.1 mm 2 mps 672 mmHg 37%
    11:00 +31°C° 0.1 mm 2 mps 672 mmHg 33%
    12:00 +33°C° 0.1 mm 3 mps 672 mmHg 29%
    13:00 +34°C° 0.1 mm 4 mps 672 mmHg 27%
    14:00 +35°C° 0.1 mm 4 mps 671 mmHg 26%
    15:00 +36°C° 0.1 mm 5 mps 671 mmHg 24%
    16:00 +34°C° 0 mm 5 mps 671 mmHg 27%
    17:00 +33°C° 0 mm 4 mps 671 mmHg 30%
    18:00 +32°C° 0 mm 4 mps 671 mmHg 34%
    19:00 +29°C° 0 mm 4 mps 671 mmHg 40%
    20:00 +26°C° 0 mm 3 mps 671 mmHg 46%
    21:00 +24°C° 0 mm 3 mps 671 mmHg 52%
    22:00 +24°C° 0 mm 3 mps 671 mmHg 53%
    23:00 +23°C° 0 mm 2 mps 672 mmHg 54%
    Show more